[[{"header":{"parameterUnit":"m.s-1","parameterCategory":1,"la1":30.2991,"la2":30.254,"lo1":-89.0895,"lo2":-89.0444,"dy":0.0017,"dx":0.0017,"nx":28,"ny":28,"refTime":"2023-11-03T09:00:00:Z","depth":0,"parameterNumber":2,"parameterNumberName":"U-component_of_WINDS"},"data":[0,0,0,0,0,0,0,0,0,0,0,0,0,0,0,0,0,0,0,0,0,0,0,0,0,0,0,0,0,0,0,0,0,0,0,0,0,0,0,0,0,0,0,0,0,0,0,0,0,0,0,0,0,0,0,0,0,0,0.1143,0.1144,0,0.1212,0.1213,0.1213,0.1254,0.1254,0.1255,0.1255,0.1326,0.1328,0.1329,0,0,0,0,0,0,0,0,0,0,0,0,0,0.1046,0.1048,0.1143,0.1144,0.1145,0.1212,0.1213,0.1214,0.1254,0.1254,0.1255,0.1255,0.1325,0.1327,0.133,0,0,0,0,0,0,0,0,0,0,0,0,0,0.1099,0.1049,0.1143,0.1173,0.1176,0.1212,0.1213,0.1214,0.1254,0.1254,0.1255,0.1255,0.1325,0.1327,0.133,0.1341,0,0,0.1338,0.1339,0,0,0,0,0,0,0,0,0.1096,0.1103,0.1168,0.1171,0.1175,0.1225,0.1205,0.1256,0.1254,0.1225,0.1255,0.1255,0.1292,0.1297,0.131,0.1344,0.1347,0.1338,0.134,0.1341,0.1341,0,0,0,0,0,0,0,0.1092,0.11,0.117,0.1169,0.1173,0.1183,0.1191,0.1215,0.1256,0.1227,0.123,0.1238,0.1294,0.1307,0.1312,0.1348,0.1338,0.134,0.1342,0.1343,0.1392,0.1392,0,0,0,0,0,0,0.1084,0.1097,0.1168,0.1172,0.1135,0.1184,0.1193,0.1208,0.1256,0.1263,0.1238,0.1239,0.1303,0.1309,0.1314,0.1329,0.1341,0.1343,0.1345,0.1393,0.1392,0.1392,0,0,0,0,0,0,0.1082,0.109,0.1165,0.1135,0.1146,0.1186,0.1203,0.121,0.1223,0.1264,0.1271,0.1243,0.1303,0.1311,0.1333,0.1332,0.1344,0.1347,0.1393,0.1393,0.1392,0.1358,0,0,0,0,0,0,0.1079,0.1089,0.1094,0.1135,0.1147,0.1183,0.1203,0.1211,0.1227,0.123,0.1271,0.1278,0.1304,0.1329,0.1336,0.1336,0.1349,0.1393,0.1393,0.1392,0.136,0.1357,0.1354,0,0,0,0,0,0.1075,0.1082,0.1094,0.1102,0.1154,0.1183,0.119,0.1219,0.1227,0.1232,0.1258,0.1277,0.1331,0.1331,0.1339,0.134,0.1393,0.1393,0.1392,0.1361,0.1357,0.1355,0,0,0,0,0,0,0.104,0.1088,0.1102,0.1122,0.1148,0.119,0.1197,0.1215,0.1239,0.1241,0.1277,0.1286,0.1304,0.1324,0.1324,0.1352,0.1364,0.1365,0.1338,0.1335,0.1332,0.1327,0.1351,0,0,0,0,0,0.1035,0.1054,0.1095,0.1109,0.1122,0.1157,0.1171,0.1191,0.1219,0.1231,0.1258,0.1285,0.1308,0.1323,0.1346,0.1363,0.1372,0.1367,0.1364,0.1362,0.1362,0.1371,0.1369,0.139,0.139,0.139,0,0,0.1024,0.1053,0.1063,0.1103,0.1126,0.1145,0.1166,0.1186,0.12,0.1234,0.1256,0.1277,0.131,0.1329,0.1339,0.1346,0.1358,0.1361,0.1359,0.1361,0.137,0.1368,0.1366,0.139,0.139,0.139,0,0,0.1014,0.1038,0.1052,0.1073,0.1107,0.113,0.1133,0.1171,0.1186,0.1209,0.1234,0.1252,0.1291,0.1312,0.1329,0.1324,0.1342,0.1331,0.1317,0.1325,0.1323,0.1321,0.1318,0.1317,0.1331,0.1331,0.1331,0,0.0997,0.1027,0.1057,0.1074,0.1091,0.1121,0.1134,0.1154,0.1193,0.1204,0.1211,0.126,0.1284,0.1307,0.1306,0.1318,0.1322,0.1326,0.1321,0.132,0.1319,0.1316,0.1315,0.1329,0.1329,0.133,0.133,0,0.1003,0.1023,0.103,0.1066,0.1083,0.1098,0.113,0.1144,0.1162,0.1184,0.1206,0.1235,0.1264,0.1272,0.129,0.1297,0.13,0.1314,0.1327,0.1314,0.1313,0.1312,0.1327,0.1327,0.1328,0.1328,0,0,0.0974,0.1025,0.1027,0.1043,0.1081,0.1097,0.1113,0.1141,0.1151,0.1177,0.119,0.1222,0.1234,0.1252,0.1272,0.1279,0.1272,0.1292,0.1293,0.1286,0.128,0.1269,0.1267,0.1284,0.1284,0.1284,0.1277,0,0.0969,0.0999,0.1026,0.1046,0.1064,0.1092,0.1106,0.1131,0.1151,0.1169,0.1192,0.1213,0.1228,0.1238,0.1247,0.1271,0.1271,0.1272,0.1297,0.1297,0.1287,0.1267,0.1256,0.1248,0.1276,0.1276,0.1276,0,0.0968,0.0991,0.1013,0.1047,0.1055,0.1067,0.1094,0.1111,0.1138,0.1153,0.1171,0.1193,0.121,0.1222,0.1246,0.1245,0.1257,0.127,0.1271,0.1274,0.1285,0.1268,0.1246,0.1244,0.1276,0.1276,0.1276,0,0.0943,0.098,0.0997,0.101,0.1051,0.1058,0.1075,0.1103,0.1117,0.114,0.115,0.1175,0.1188,0.1207,0.1234,0.124,0.1254,0.1268,0.1266,0.1265,0.1267,0.1267,0.1245,0.1276,0.1276,0.1276,0.1276,0,0.0934,0.0946,0.0986,0.0997,0.1011,0.104,0.1053,0.1073,0.1097,0.1111,0.1137,0.115,0.1185,0.1202,0.1223,0.1239,0.1245,0.1256,0.1262,0.1254,0.1252,0.1261,0.1262,0.1276,0.1276,0.1276,0.1276,0,0.091,0.0937,0.0957,0.0993,0.1002,0.1011,0.1041,0.1052,0.1073,0.1091,0.1097,0.113,0.1151,0.1179,0.121,0.1224,0.1236,0.1245,0.1226,0.123,0.1225,0.1224,0.1208,0.1207,0.1239,0.1238,0.1238,0,0.0902,0.0912,0.0948,0.0959,0.0975,0.0993,0.1007,0.1036,0.105,0.108,0.1087,0.111,0.113,0.1161,0.1188,0.1211,0.122,0.1213,0.1224,0.1214,0.1218,0.1217,0.1217,0.121,0.1209,0.1209,0.1209,0,0.0885,0.0898,0.0917,0.094,0.0956,0.0976,0.0997,0.1004,0.1038,0.1052,0.1073,0.1088,0.1117,0.1139,0.1165,0.1182,0.12,0.1205,0.1205,0.1197,0.1185,0.119,0.1218,0.1205,0.1206,0.1206,0.1206,0.1206,0.0869,0.0878,0.0904,0.0924,0.0942,0.096,0.0972,0.0993,0.1011,0.1037,0.1053,0.1073,0.1099,0.1135,0.1151,0.1167,0.1174,0.1175,0.1175,0.1175,0.1171,0.1183,0.1172,0.1172,0.1172,0.1172,0.1172,0,0.0852,0.087,0.0888,0.0915,0.093,0.0946,0.0969,0.0981,0.0998,0.102,0.1038,0.1061,0.1081,0.1109,0.1131,0.1138,0.1147,0.1143,0.1142,0.1145,0.1164,0.1161,0.1135,0.1135,0.1135,0.1135,0.1135,0.1135,0.0846,0.0861,0.0876,0.09,0.0918,0.0937,0.0949,0.0965,0.0983,0.1007,0.1024,0.1041,0.1065,0.1088,0.1107,0.1115,0.1121,0.1114,0.1124,0.1141,0.1144,0.1148,0.1145,0.1116,0.1116,0.1104,0.1104,0.1104]},{"header":{"parameterUnit":"m.s-1","parameterCategory":1,"la1":30.2991,"la2":30.254,"lo1":-89.0895,"lo2":-89.0444,"dy":0.0017,"dx":0.0017,"nx":28,"ny":28,"refTime":"2023-11-03T09:00:00:Z","depth":0,"parameterNumber":3,"parameterNumberName":"V-component_of_WINDS"},"data":[0,0,0,0,0,0,0,0,0,0,0,0,0,0,0,0,0,0,0,0,0,0,0,0,0,0,0,0,0,0,0,0,0,0,0,0,0,0,0,0,0,0,0,0,0,0,0,0,0,0,0,0,0,0,0,0,0,0,1.0745,1.0745,0,1.0711,1.071,1.071,1.0708,1.0708,1.0709,1.0709,1.0671,1.067,1.0668,0,0,0,0,0,0,0,0,0,0,0,0,0,1.0806,1.0805,1.0745,1.0745,1.0744,1.0711,1.071,1.071,1.0708,1.0708,1.0709,1.0709,1.0671,1.067,1.0668,0,0,0,0,0,0,0,0,0,0,0,0,0,1.0776,1.0805,1.0745,1.0739,1.0739,1.0711,1.071,1.071,1.0708,1.0708,1.0709,1.0709,1.0672,1.067,1.0668,1.0643,0,0,1.0661,1.0661,0,0,0,0,0,0,0,0,1.0778,1.0774,1.0741,1.074,1.0739,1.0714,1.0718,1.0687,1.0707,1.0719,1.0709,1.071,1.0685,1.0682,1.0674,1.0641,1.064,1.0661,1.066,1.0659,1.0659,0,0,0,0,0,0,0,1.078,1.0775,1.0732,1.074,1.0739,1.0737,1.0734,1.0712,1.0699,1.0718,1.0718,1.0714,1.0684,1.0676,1.0673,1.0639,1.0661,1.0659,1.0658,1.0657,1.0581,1.0581,0,0,0,0,0,0,1.0784,1.0777,1.0733,1.073,1.076,1.0736,1.0732,1.0721,1.0699,1.0696,1.0714,1.0714,1.0679,1.0675,1.0671,1.0639,1.0659,1.0657,1.0656,1.0582,1.0581,1.058,0,0,0,0,0,0,1.0785,1.078,1.0734,1.0754,1.0748,1.0734,1.0722,1.072,1.0712,1.0696,1.0693,1.0707,1.0679,1.0674,1.065,1.0637,1.0656,1.0654,1.0583,1.0582,1.0581,1.0575,0,0,0,0,0,0,1.0787,1.078,1.0772,1.0754,1.0747,1.0714,1.0722,1.0719,1.0709,1.0709,1.0689,1.0686,1.0679,1.0653,1.0647,1.0635,1.0653,1.0584,1.0582,1.0581,1.0576,1.0573,1.0571,0,0,0,0,0,1.0789,1.0771,1.0771,1.0766,1.0736,1.0713,1.0709,1.0702,1.0708,1.0698,1.0687,1.0687,1.064,1.065,1.0644,1.0631,1.0585,1.0583,1.0581,1.0577,1.0574,1.0571,0,0,0,0,0,0,1.0788,1.0769,1.0769,1.0745,1.0731,1.0713,1.0701,1.07,1.0683,1.0684,1.0675,1.067,1.0645,1.0636,1.0648,1.0604,1.0613,1.061,1.0611,1.0608,1.0606,1.0608,1.0651,0,0,0,0,0,1.0785,1.077,1.0753,1.0734,1.0727,1.0715,1.0705,1.0701,1.0685,1.0679,1.0667,1.0651,1.0632,1.062,1.0602,1.0575,1.0569,1.0562,1.056,1.0558,1.0555,1.0537,1.0533,1.0575,1.0575,1.0575,0,0,1.0779,1.0767,1.0757,1.0733,1.0722,1.0704,1.071,1.0692,1.0678,1.0676,1.0651,1.0642,1.0623,1.0596,1.0584,1.0588,1.0543,1.0556,1.0555,1.0553,1.0535,1.0531,1.0528,1.0573,1.0574,1.0574,0,0,1.0758,1.0748,1.073,1.0718,1.0701,1.0693,1.0688,1.067,1.0663,1.0639,1.0636,1.0619,1.0588,1.0574,1.0563,1.0535,1.0533,1.0529,1.0517,1.05,1.0496,1.0493,1.0481,1.0477,1.0527,1.0527,1.0527,0,1.0753,1.0727,1.0721,1.0702,1.069,1.0688,1.0668,1.0656,1.0634,1.0625,1.063,1.0589,1.0577,1.0545,1.0538,1.053,1.0523,1.0531,1.0498,1.0494,1.0492,1.0479,1.0475,1.0526,1.0526,1.0526,1.0526,0,1.072,1.0702,1.0689,1.0666,1.0654,1.0634,1.0623,1.0611,1.0607,1.0598,1.0572,1.0557,1.0534,1.0527,1.0523,1.0494,1.0497,1.05,1.0508,1.0487,1.0476,1.0471,1.0526,1.0526,1.0526,1.0526,0,0,1.0698,1.0671,1.0667,1.0655,1.0635,1.062,1.06,1.0579,1.0567,1.0551,1.0532,1.0505,1.0507,1.0494,1.0489,1.0474,1.0449,1.0478,1.0477,1.0471,1.0413,1.0409,1.0404,1.0448,1.0447,1.0447,1.0413,0,1.0674,1.0638,1.0631,1.0599,1.0581,1.0577,1.0559,1.0544,1.0534,1.0516,1.0505,1.0485,1.0491,1.0483,1.0468,1.0455,1.0437,1.0458,1.0428,1.0427,1.0431,1.0398,1.0395,1.0364,1.0409,1.0408,1.0408,0,1.0641,1.0623,1.059,1.0569,1.0562,1.0546,1.0524,1.0508,1.0489,1.0483,1.0468,1.0464,1.044,1.045,1.0416,1.0431,1.0418,1.041,1.0408,1.0404,1.0415,1.0391,1.0355,1.0349,1.0401,1.0402,1.0402,0,1.0625,1.0594,1.0569,1.056,1.0536,1.0524,1.0514,1.0496,1.0483,1.0464,1.0454,1.0433,1.0421,1.0403,1.0392,1.0401,1.0358,1.0368,1.035,1.035,1.034,1.0341,1.0299,1.0336,1.0336,1.0336,1.0336,0,1.0598,1.0577,1.0562,1.0546,1.0522,1.0513,1.0488,1.0478,1.0461,1.0442,1.0438,1.042,1.0408,1.0388,1.0379,1.0351,1.0346,1.0338,1.0336,1.0338,1.0338,1.0328,1.0329,1.0335,1.0335,1.0335,1.0335,0,1.0577,1.0566,1.0538,1.0517,1.0512,1.0494,1.0476,1.046,1.045,1.0426,1.0419,1.0403,1.0379,1.0366,1.0336,1.033,1.0297,1.0297,1.0304,1.0302,1.0284,1.0285,1.0233,1.0225,1.0269,1.0268,1.0268,0,1.0559,1.0543,1.052,1.0507,1.0496,1.0476,1.0462,1.0452,1.0437,1.0413,1.0399,1.0375,1.0355,1.0315,1.03,1.0276,1.0274,1.0257,1.027,1.0271,1.027,1.0271,1.0268,1.0255,1.0254,1.0254,1.0254,0,1.0528,1.0523,1.0504,1.0482,1.0465,1.0447,1.043,1.0419,1.0405,1.0389,1.0364,1.0348,1.0317,1.0291,1.0266,1.0253,1.025,1.025,1.0244,1.0244,1.0248,1.0243,1.0295,1.0251,1.0251,1.0251,1.0251,1.0251,1.0507,1.0491,1.0472,1.0449,1.0435,1.0418,1.0401,1.0388,1.0367,1.0341,1.0336,1.0309,1.0288,1.0253,1.024,1.0217,1.022,1.0213,1.021,1.0208,1.0206,1.0253,1.0213,1.0213,1.0213,1.0213,1.0213,0,1.0474,1.0461,1.0441,1.0415,1.0397,1.0397,1.0376,1.036,1.0337,1.0318,1.0297,1.0267,1.0242,1.0224,1.0198,1.0183,1.018,1.0176,1.0176,1.0172,1.0206,1.0212,1.0178,1.0178,1.0178,1.0178,1.0178,1.0178,1.0455,1.0427,1.0419,1.0383,1.037,1.0343,1.0331,1.0314,1.0299,1.0265,1.0244,1.0233,1.0214,1.0186,1.0162,1.0157,1.0146,1.0141,1.0136,1.0167,1.0171,1.0174,1.018,1.014,1.014,1.0105,1.0104,1.0104]}]]